User: anonymous   Login
Location: Caltech
(34.1382°N, 118.1253°W)
Time: 06:51:07
(UTC-07:00)
Language:

Cosmos 1943 Rocket - Orbit

View from above orbital plane
View from above orbital plane
View from above satellite
View from above satellite

Ground track
Ground track

The orbit data is extracted from the following two-line orbital elements,

1 19120U 88039B   16270.26599729 -.00000102  00000-0 -25791-4 0  9999
2 19120  71.0152 162.5684 0023763 236.2519 123.6341 14.19152511468943
Epoch (UTC): 26 September 2016 06:23:02
Eccentricity: 0.0023763
inclination: 71.0152°
perigee height: 811 km
apogee height: 845 km
right ascension of ascending node: 162.5684°
argument of perigee: 236.2519°
revolutions per day: 14.19152511
mean anomaly at epoch: 123.6341°
orbit number at epoch: 46894

The dashed part of the orbit path shows where the satellite is in the earth's shadow,  

DLR